Regional Weather Roundup
Issued by NWS

Home | Current Version | Previous Version | Graphics & Text | Print | Product List | Glossary Off
Versions: 1 2 3 4 5 6 7 8 9 10 11 12 13 14 15 16 17 18 19 20 21 22 23 24 25 26 27 28 29 30 31 32 33 34 35 36 37 38 39 40 41 42 43 44 45 46 47 48 49 50

000
ASUS43 KTOP 052308
RWRKS

WEATHER ROUNDUP FOR KANSAS
NATIONAL WEATHER SERVICE GOODLAND KS
500 PM CST THU MAR 05 2015

NOTE:  "FAIR" INDICATES FEW OR NO CLOUDS BELOW 12,000 FEET WITH NO
SIGNIFICANT WEATHER AND/OR OBSTRUCTIONS TO VISIBILITY.

KSZ001>006-013>018-027>032-041>047-060000-
NORTHWEST KANSAS

CITY           SKY/WX    TMP DP  RH WIND       PRES   REMARKS
GOODLAND       PTSUNNY   45  12  26 SW16      30.24S
HAYS           SUNNY     46   5  18 SW8       30.31F
HILL CITY      PTSUNNY   49   5  16 W10       30.28S
RUSSELL        SUNNY     44   2  17 SW9       30.32S
$$

KSZ061>065-074>080-084>089-060000-
SOUTHWEST KANSAS

CITY           SKY/WX    TMP DP  RH WIND       PRES   REMARKS
DODGE CITY     SUNNY     47   5  18 W8        30.33S
ELKHART          N/A     47  14  26 S9          N/A
GARDEN CITY    SUNNY     45   7  21 SW6       30.29F
GREAT BEND     SUNNY     46   9  21 SW12      30.34S
LIBERAL        SUNNY     45  16  31 S8        30.34S
PRATT          SUNNY     43  14  31 SW9       30.38S
$$

KSZ066>073-081>083-090>101-060000-
SOUTHEAST KANSAS

CITY           SKY/WX    TMP DP  RH WIND       PRES   REMARKS
CHANUTE        SUNNY     39  14  36 S7        30.47F
COFFEYVILLE    SUNNY     41  15  35 NE5       30.49F
HUTCHINSON     SUNNY     45  17  32 SW14      30.38S
MEDICINE LODGE   N/A     46  11  24 S8        30.38S
NEWTON         SUNNY     43  16  33 S12       30.41F
PARSONS        SUNNY     40  14  34 VRB3      30.49S
WICHITA INTL   SUNNY     45   9  23 SW13      30.41S
WICHITA JABRA  SUNNY     43  13  29 W13       30.41S
WICHITA MCCONL SUNNY     44  12  27 SW8       30.41S
WINFIELD       SUNNY     44  14  29 SW9       30.45S
$$

KSZ007>012-019>026-033>040-048>060-102>105-060000-
NORTHEAST KANSAS

CITY           SKY/WX    TMP DP  RH WIND       PRES   REMARKS
CONCORDIA      SUNNY     40   6  24 S5        30.36F
EMPORIA        SUNNY     39  13  34 S5        30.42F
LAWRENCE       SUNNY     33   7  33 SE7       30.49S
MANHATTAN      SUNNY     41   8  25 S5        30.41F
MARYSVILLE     SUNNY     36   9  32 S8        30.40S
OLATHE IND     SUNNY     31   8  38 S5        30.49S
OLATHE EXE     SUNNY     32   7  35 VRB3      30.48S
SALINA         SUNNY     45   3  17 S8        30.38F
TOPEKA BILLARD SUNNY     36   8  31 S6        30.47F
TOPEKA FORBES  SUNNY     36  10  34 S8        30.46S
$$



USA.gov is the U.S. government's official web portal to all federal, state and local government web resources and services.